STARLINK-3697, 51962

Orbit data source: Space-Track

STARLINK-3697, 51962 is a payload satellite owned by SpaceX/Seattle (US) in LEO that was launched on Wed, 09 Mar 2022 UTC via an FALCON 9 launch vehicle from the Air Force Eastern Test Range (AFETR). Payload-class satellites include a variety of spacecraft equipped with specific instruments for various scientific and technological missions. These include communications satellites like Starlink; space stations such as the ISS; scientific satellites like the Hubble; Earth observation satellites from companies like Planet Labs, Umbra, and HawkEye 360; GPS; miniature CubeSats for education and research; and military/defense satellites.

Loading next visibility...
Identifier
51962, 2022-025G
Orbit
LEO
Country
Flag of USUS
Related business
Manufacturer
SpaceX/Seattle
Mission
Operational Commercial Communications
Bus & Motor
STARLINK, Unknown motor
Mass
297 kg wet, ~275 kg dry
Launch date (UTC)
2022-03-09 (4 years ago)
Launch vehicle
FALCON 9
Launch site
Air Force Eastern Test Range (AFETR)
Object type
Payload
Rocket body
Debris
Shape & HBR
Box + 1 Pan, 10.1 m
Radar Cross Section
13.562 m², Large (>1 m²)

Expand to show TLE details & history
Last TLE update: 2 days ago

TLE from 2 days ago
0 STARLINK-3697
1 51962U 22025G   26171.41739498  .00000107  00000-0  15197-4 0  9991
2 51962  53.1605 266.3875 0001087  92.7141 267.3985 15.31705135236756
Epoch: 2026-06-20T10:01Z
TLE epoch observation values (Epoch: 2026-06-20T10:01:02.926Z)
Latitude
Longitude
-152.50701°
Altitude
471.659 km
Speed
7.631 km/s
True Right ascension
17h 45m 33s
True Declination
0° 00' 00"
Sunlit
Object was in full shadow at epoch
Visualization orbit readout
Latitude
Unknown
Longitude
Unknown
Altitude
Unknown
Speed
Unknown
Apparent Right ascension
Unknown
Apparent Declination
Unknown
Sunlit
N/A
Visualization observer readout
Local Sidereal Time
21:51:56
Azimuth
Unknown
Elevation
Unknown
Doppler factor
Unknown
Orbital elements
Apogee altitude
471.726 km
Perigee altitude
470.237 km
Semi-major axis
6,849.118 km
Eccentricity
0.00011
Inclination
53.1605°
RAAN
266.3875°
Arg. of periapsis
92.7141°
True anomaly
267.38606°
Mean anomaly
267.3985°
Eccentric anomaly
267.39228°
Mean motion
3.82905 °/min
Orbital period
94.02 mins
BSTAR
0.000015197
Loading maneuver chart data...
Computing Atmospheric mass density...

Documentation

Showing up to 5 results
|